Location: M.A.R.S.Observatory
(35.4031°N, 81.5481°W)
Time: 02:46:06
(UTC-04:00)

Daily predictions for brighter satellites

Satellite Brightness Start Highest point End
(mag) Time Altitude Azimuth Time Altitude Azimuth Time Altitude Azimuth
SL-16 R/B 4.4 00:26:09 20° N 00:26:09 20° N 00:27:59 10° N
CZ-3A R/B 4.3 02:03:18 10° SW 02:26:06 51° NNW 02:30:18 10° NNE
Cosmos 2219 Rocket 4.5 02:53:37 17° NNW 02:53:37 17° NNW 02:55:13 10° N
Cosmos 2333 Rocket 4.3 02:57:45 20° NNW 02:57:45 20° NNW 02:59:53 10° N
SL-16 R/B 4.0 03:00:03 27° NNE 03:00:03 27° NNE 03:02:32 10° NNE
Cosmos 2237 Rocket 4.3 03:06:52 20° NNW 03:06:52 20° NNW 03:09:01 10° N
BREEZE-M DEB (TANK) 4.3 03:20:29 77° NNW 03:20:29 77° NNW 03:25:12 10° NE
ATLAS 3B R/B 3.9 03:26:18 35° NW 03:26:18 35° NW 03:32:29 10° NNE
Resurs 1-4 Rocket 3.6 03:28:44 10° NNE 03:32:23 30° ENE 03:32:23 30° ENE
CZ-4C R/B 3.3 03:41:23 39° N 03:41:23 39° N 03:45:13 10° NNE
ATLAS 5 CENTAUR R/B 4.3 03:45:51 14° ESE 03:45:51 14° ESE 03:48:02 10° ENE
ARIANE 5 R/B 3.6 03:42:10 10° NNE 03:45:54 43° NE 03:45:54 43° NE
Okean O Rocket 4.1 03:54:50 10° NE 03:57:36 16° E 03:58:24 15° ESE
SL-16 R/B 2.6 04:03:00 64° ESE 04:03:46 71° ENE 04:09:54 10° N
CZ-3 R/B 4.5 03:02:09 10° W 04:11:30 70° SSW 04:25:10 10° ESE
Cosmos 1943 3.4 04:12:12 62° ESE 04:12:12 62° ESE 04:17:48 10° NNE
Cosmos 2251 Rocket 3.7 04:14:04 67° NE 04:14:04 67° NE 04:18:40 10° NNE
USA 234 3.7 04:07:35 10° NNE 04:13:46 46° NW 04:14:35 44° WNW
S3M 4.4 04:15:52 47° NW 04:15:52 47° NW 04:20:56 10° N
SeaSat 1 3.9 04:12:11 10° SE 04:16:39 36° ENE 04:21:09 10° N
Cosmos 1110 Rocket 4.3 04:21:29 10° N 04:26:40 65° ENE 04:28:45 36° SE
Cosmos 1726 4.5 04:29:41 17° NNW 04:29:41 17° NNW 04:30:43 10° N
Cosmos 2369 Rocket 3.1 04:22:02 10° N 04:27:27 47° ENE 04:32:49 10° SE
Cosmos 2242 Rocket 4.0 04:28:23 65° ENE 04:28:23 65° ENE 04:32:34 10° NNE
CZ-2D R/B 2.1 04:23:28 10° N 04:28:18 67° NW 04:28:18 67° NW
NOSS 3-2 (A) 3.6 04:28:40 53° WNW 04:28:59 54° NW 04:35:24 10° NNE
CZ-2D R/B 3.9 04:27:28 10° NNE 04:31:34 62° ENE 04:31:34 62° ENE
BREEZE-M DEB (TANK) 4.1 04:34:26 33° SSE 04:34:26 33° SSE 04:39:20 10° SE
Cosmos 1455 3.3 04:33:30 42° E 04:33:30 42° E 04:37:03 10° NNE
SL-16 R/B 4.4 04:41:56 12° NW 04:41:56 12° NW 04:43:44 10° NNW
Cosmos 1745 Rocket 4.4 04:37:15 10° NNW 04:42:43 42° WNW 04:42:43 42° WNW
NOSS 3-2 (C) 3.7 04:42:57 48° W 04:43:53 53° NW 04:50:18 10° NNE
Cosmos 1709 Rocket 4.0 04:39:03 10° N 04:45:27 85° E 04:50:07 19° S
Cosmos 1386 Rocket 4.5 04:39:53 10° NNW 04:46:02 56° W 04:46:47 53° WSW
Meteor 1-27 4.5 04:47:53 47° WNW 04:47:53 47° WNW 04:53:09 10° N
Cosmos 1862 Rocket 4.2 04:47:13 36° SE 04:48:35 52° E 04:52:50 10° NNE
CZ-4B R/B 4.1 04:46:12 10° NNE 04:49:34 35° E 04:50:41 28° SE
MOS 1-B 4.3 04:46:46 10° N 04:52:29 63° WNW 04:53:45 50° WSW
CENTAUR R/B 3.2 04:50:51 24° S 04:54:09 46° ESE 05:00:23 10° NE
Cosmos 839 Rocket 4.2 04:46:16 10° NNW 04:54:14 86° WSW 05:00:41 10° SSE
Cosmos 1943 Rocket 3.7 04:56:41 10° N 05:01:57 38° ENE 05:07:09 10° SE
Cosmos 724 4.4 05:04:20 42° WSW 05:06:12 62° WNW 05:12:08 10° NNE
Cosmos 1869 3.2 05:06:12 54° S 05:07:04 90° E 05:11:04 10° N
UNKNOWN OBJECT B 4.2 05:04:26 10° NNW 05:06:33 24° NW 05:06:33 24° NW
Cosmos 389 Rocket 2.8 05:08:00 42° SSE 05:08:55 60° E 05:12:21 10° NNE
Cosmos 494 Rocket 4.5 05:08:30 38° W 05:09:18 41° WNW 05:14:17 10° N
ARGOS Delta rocket 3.6 05:07:09 10° N 05:11:28 59° WNW 05:12:24 47° SW
Resurs 1-4 Rocket 3.2 05:08:49 10° NNW 05:13:07 26° WNW 05:13:28 26° WNW
ATLAS CENTAUR R/B 1.3 05:10:20 10° NNW 05:14:35 81° ENE 05:18:26 10° SSE
Atlas Centaur 2 4.0 05:15:23 10° S 05:17:35 13° SSE 05:20:03 10° ESE
Cosmos 1302 Rocket 3.9 05:12:25 10° NNW 05:17:42 84° WSW 05:22:53 10° SSE
Cosmos 1825 4.0 05:14:17 10° NNE 05:17:43 32° E 05:21:07 10° SE
Cosmos 1733 Rocket 2.9 05:16:08 10° NNW 05:20:29 71° W 05:24:10 14° S
ARIANE 5 R/B 4.3 05:23:00 10° NNW 05:25:55 15° WNW 05:26:14 15° WNW
BREEZE-M DEB (TANK) 4.5 05:24:58 10° NW 05:29:05 67° NE 05:40:38 10° ESE
Cosmos 1408 3.8 05:25:47 10° N 05:29:22 45° E 05:32:58 10° SSE
CZ-4C R/B 4.4 05:27:59 10° NW 05:29:26 11° NNW 05:30:56 10° NNW
ATLAS 5 CENTAUR R/B 2.0 05:27:26 31° WSW 05:29:32 56° NW 05:34:35 10° NNE
Cosmos 2221 Rocket 4.3 05:28:10 10° S 05:32:30 55° E 05:36:50 10° NNE
ADEOS II 2.7 05:28:08 10° NNE 05:33:18 56° E 05:38:26 10° S
Okean-O 3.1 05:29:19 10° NNE 05:33:42 60° E 05:38:05 10° S
Okean O Rocket 2.2 05:29:57 10° N 05:34:05 38° WNW 05:35:51 27° WSW
CZ-2C R/B 3.9 05:33:59 10° S 05:38:15 45° W 05:42:31 10° NNW
Cosmos 1892 4.0 05:35:22 10° NW 05:37:56 22° WNW 05:37:56 22° WNW
MOZ.5/SAFIR/RUBIN 5/SL-8 4.2 05:38:50 10° SSW 05:43:07 38° W 05:47:27 10° NNW
COSMOS 2406 3.3 05:39:40 10° SSW 05:45:27 87° ESE 05:51:15 10° NNE
Thor Agena Rocket 3.4 05:41:10 10° S 05:46:14 69° WSW 05:51:24 10° NNW
Cosmos 1908 Rocket 3.5 05:41:50 10° N 05:46:15 86° W 05:50:35 10° S
Geosat 4.1 05:41:53 10° NNE 05:46:50 59° WNW 05:50:54 15° SW
SL-16 R/B 4.0 05:48:06 15° W 05:48:06 15° W 05:51:08 10° WNW
Cosmos 1184 Rocket 3.4 05:45:15 10° NNW 05:48:26 36° W 05:51:14 12° SSW
BREEZE-M DEB (TANK) 4.1 05:46:59 10° NNW 05:48:59 27° NE 05:51:45 10° E
Sich 1 Rocket 3.5 05:45:14 10° NNW 05:49:34 61° W 05:53:53 10° S
SeaSat 1 3.4 05:50:11 10° SSW 05:54:11 25° WSW 05:58:13 10° NW
OAO 3 Copernicus 4.3 05:52:38 14° W 05:56:55 78° S 06:01:57 10° ESE
Pageos (A) 4.2 05:56:30 10° NW 05:58:17 23° W 05:58:26 23° W
Cosmos 1190 Rocket 4.3 05:53:46 10° S 05:58:55 69° ESE 06:04:05 10° NNE
Cosmos 1174 4.5 05:53:20 10° SSW 05:59:19 83° WNW 06:04:04 10° NNE
USA 32 4.0 05:54:56 10° SSW 06:00:07 64° W 06:05:20 10° N
Cosmos 1703 Rocket 3.6 05:55:56 10° SSW 06:00:20 61° W 06:04:47 10° N
CZ-4B R/B 4.1 06:04:50 10° N 06:09:15 27° WNW 06:13:38 10° SW
Cosmos 1455 4.4 06:08:44 10° W 06:09:17 10° WNW 06:09:50 10° WNW
SL-27 R/B 3.5 06:06:48 12° SW 06:09:39 30° WNW 06:12:55 10° N
Cosmos 2369 Rocket 3.4 06:07:05 10° NW 06:11:02 20° W 06:14:59 10° SW
Cosmos 1992 Rocket 4.0 06:11:40 10° NNW 06:16:55 80° WSW 06:22:08 10° SSE
Meteor PRIRODA 4.2 06:18:56 10° N 06:22:28 40° WNW 06:26:00 10° SW
Meteor 1-31 Rocket 2.8 06:24:07 10° N 06:27:53 60° WNW 06:31:37 10° SSW
Cosmos 2181 Rocket 4.2 06:23:05 10° S 06:29:32 87° W 06:35:59 10° N
